TimeEDT,TemperatureF,Dew PointF,Humidity,Sea Level PressureIn,VisibilityMPH,Wind Direction,Wind SpeedMPH,Gust SpeedMPH,PrecipitationIn,Events,Conditions,WindDirDegrees,DateUTC
12:42 AM,30.9,28.9,92,30.32,0.8,Calm,Calm,-,N/A,,Mist,0,2013-03-11 04:42:00
12:56 AM,32.0,30.0,92,30.31,1.2,SE,3.5,-,N/A,,Scattered Clouds,140,2013-03-11 04:56:00
12:58 AM,33.1,30.0,89,30.31,2.5,SE,3.5,-,N/A,,Scattered Clouds,140,2013-03-11 04:58:00
1:05 AM,33.1,30.9,92,30.30,10.0,SE,3.5,-,N/A,,Scattered Clouds,130,2013-03-11 05:05:00
1:54 AM,36.0,34.0,93,30.29,9.0,SE,5.8,-,N/A,,Clear,130,2013-03-11 05:54:00
2:18 AM,35.1,33.1,92,30.29,2.5,SE,5.8,-,N/A,,Clear,140,2013-03-11 06:18:00
2:26 AM,37.9,35.1,89,30.29,10.0,SSE,4.6,-,N/A,,Clear,150,2013-03-11 06:26:00
2:54 AM,37.9,37.0,97,30.29,9.0,Calm,Calm,-,N/A,,Clear,0,2013-03-11 06:54:00
3:04 AM,32.0,32.0,100,30.28,1.8,Calm,Calm,-,N/A,,Clear,0,2013-03-11 07:04:00
3:11 AM,32.0,30.9,96,30.27,0.8,ESE,3.5,-,N/A,,Clear,120,2013-03-11 07:11:00
3:30 AM,32.0,30.9,96,30.27,1.5,Calm,Calm,-,N/A,,Clear,0,2013-03-11 07:30:00
3:35 AM,32.0,30.9,96,30.27,3.0,Calm,Calm,-,N/A,,Clear,0,2013-03-11 07:35:00
3:54 AM,30.9,28.9,92,30.27,10.0,Calm,Calm,-,N/A,,Clear,0,2013-03-11 07:54:00
4:07 AM,30.0,28.0,92,30.26,1.5,Calm,Calm,-,N/A,,Scattered Clouds,0,2013-03-11 08:07:00
4:09 AM,28.9,28.0,96,30.26,1.0,Calm,Calm,-,N/A,,Mist,0,2013-03-11 08:09:00
4:16 AM,28.9,28.0,96,30.26,0.5,Calm,Calm,-,N/A,Fog,Light Freezing Fog,0,2013-03-11 08:16:00
4:23 AM,28.9,28.0,96,30.25,0.2,Calm,Calm,-,N/A,Fog,Light Freezing Fog,0,2013-03-11 08:23:00
4:51 AM,30.2,28.4,93,30.26,0.2,NW,3.5,-,N/A,Fog,Light Freezing Fog,320,2013-03-11 08:51:00
4:54 AM,30.0,28.0,92,30.26,0.2,Calm,Calm,-,N/A,Fog,Light Freezing Fog,0,2013-03-11 08:54:00
5:44 AM,30.0,28.9,96,30.25,0.2,Calm,Calm,-,N/A,Fog,Light Freezing Fog,0,2013-03-11 09:44:00
5:54 AM,28.9,28.0,96,30.25,0.2,Calm,Calm,-,N/A,Fog,Light Freezing Fog,0,2013-03-11 09:54:00
6:10 AM,28.0,27.0,96,30.25,0.5,Calm,Calm,-,N/A,Fog,Light Freezing Fog,0,2013-03-11 10:10:00
6:28 AM,28.9,27.0,92,30.24,0.2,Calm,Calm,-,N/A,Fog,Light Freezing Fog,0,2013-03-11 10:28:00
6:54 AM,28.9,27.0,92,30.24,0.2,SSE,3.5,-,N/A,Fog,Light Freezing Fog,150,2013-03-11 10:54:00
7:08 AM,30.0,28.0,92,30.24,0.5,Calm,Calm,-,N/A,Fog,Light Freezing Fog,0,2013-03-11 11:08:00
7:36 AM,30.0,28.0,92,30.24,0.2,Calm,Calm,-,N/A,Fog,Light Freezing Fog,0,2013-03-11 11:36:00
7:46 AM,30.0,28.0,92,30.24,0.2,Calm,Calm,-,N/A,Fog,Light Freezing Fog,0,2013-03-11 11:46:00
7:54 AM,30.9,30.0,96,30.25,0.2,NW,3.5,-,N/A,Fog,Light Freezing Fog,310,2013-03-11 11:54:00
8:39 AM,36.0,36.0,100,30.25,0.2,Calm,Calm,-,N/A,Fog,Fog,0,2013-03-11 12:39:00
8:54 AM,37.9,37.0,97,30.25,0.5,Calm,Calm,-,N/A,Fog,Fog,0,2013-03-11 12:54:00
9:09 AM,39.0,39.0,100,30.25,4.0,Calm,Calm,-,N/A,,Overcast,0,2013-03-11 13:09:00
9:54 AM,46.0,43.0,89,30.25,10.0,South,4.6,-,N/A,,Overcast,170,2013-03-11 13:54:00
10:54 AM,51.1,44.1,77,30.25,10.0,South,13.8,20.7,N/A,,Overcast,180,2013-03-11 14:54:00
11:40 AM,52.0,44.1,74,30.23,10.0,South,16.1,21.9,N/A,,Mostly Cloudy,180,2013-03-11 15:40:00
11:54 AM,53.1,44.1,71,30.23,10.0,South,11.5,-,N/A,,Mostly Cloudy,170,2013-03-11 15:54:00
12:20 PM,52.0,44.1,74,30.22,10.0,South,11.5,-,N/A,,Scattered Clouds,180,2013-03-11 16:20:00
12:54 PM,54.0,44.1,69,30.22,10.0,South,11.5,19.6,N/A,,Scattered Clouds,170,2013-03-11 16:54:00
1:54 PM,54.0,45.0,72,30.20,10.0,South,10.4,19.6,N/A,,Scattered Clouds,180,2013-03-11 17:54:00
2:14 PM,54.0,45.0,72,30.19,10.0,South,12.7,-,N/A,,Mostly Cloudy,190,2013-03-11 18:14:00
2:54 PM,53.1,45.0,74,30.17,10.0,South,12.7,-,N/A,,Scattered Clouds,170,2013-03-11 18:54:00
3:54 PM,53.1,46.0,77,30.16,10.0,South,11.5,-,N/A,,Clear,170,2013-03-11 19:54:00
4:54 PM,53.1,46.0,77,30.14,10.0,South,10.4,-,N/A,,Clear,180,2013-03-11 20:54:00
5:54 PM,52.0,46.9,83,30.13,10.0,SSE,9.2,-,N/A,,Scattered Clouds,160,2013-03-11 21:54:00
6:01 PM,52.0,46.9,83,30.12,10.0,SSE,10.4,-,N/A,,Mostly Cloudy,160,2013-03-11 22:01:00
6:27 PM,50.0,46.0,86,30.12,10.0,SSE,10.4,-,N/A,,Mostly Cloudy,150,2013-03-11 22:27:00
6:54 PM,50.0,46.0,86,30.13,10.0,South,9.2,-,N/A,,Overcast,170,2013-03-11 22:54:00
7:30 PM,50.0,46.0,86,30.12,10.0,SSE,10.4,-,N/A,,Overcast,160,2013-03-11 23:30:00
7:49 PM,50.0,46.4,87,30.12,10.0,South,9.2,-,N/A,,Overcast,170,2013-03-11 23:49:00
7:54 PM,50.0,46.9,89,30.13,10.0,South,8.1,-,N/A,,Mostly Cloudy,180,2013-03-11 23:54:00
8:54 PM,50.0,46.9,89,30.12,10.0,SSE,10.4,-,N/A,,Overcast,160,2013-03-12 00:54:00
9:22 PM,51.1,46.9,86,30.11,10.0,SSE,13.8,21.9,N/A,,Scattered Clouds,160,2013-03-12 01:22:00
9:54 PM,51.1,46.9,86,30.10,10.0,South,12.7,24.2,N/A,,Clear,170,2013-03-12 01:54:00
10:54 PM,51.1,46.9,86,30.09,10.0,SSE,13.8,20.7,N/A,,Clear,160,2013-03-12 02:54:00
11:54 PM,51.1,46.0,83,30.09,10.0,SSE,12.7,-,N/A,,Partly Cloudy,160,2013-03-12 03:54:00